Regional Weather Roundup
Issued by NWS

Home | Current Version | Previous Version | Text Only | Print | Product List | Glossary Off
Versions: 1 2 3 4 5 6 7 8 9 10 11 12 13 14 15 16 17 18 19 20 21 22 23 24 25 26 27 28 29 30 31 32 33 34 35 36 37 38 39 40 41 42 43 44 45 46 47 48 49 50

000
ASUS43 KIND 191559
RWRIN

WEATHER ROUNDUP FOR INDIANA
NATIONAL WEATHER SERVICE INDIANAPOLIS IN
1200 PM EDT THU APR 19 2018

NOTE: "FAIR" INDICATES FEW OR NO CLOUDS BELOW 12,000 FEET WITH NO
SIGNIFICANT WEATHER AND/OR OBSTRUCTIONS TO VISIBILITY.

* - STATION DOES NOT REPORT WEATHER SUCH AS PRECIPITATION OR FOG.

+ - STATION NOT QUALITY CONTROLLED BY THE NATIONAL WEATHER SERVICE.
    USE DATA WITH CAUTION...ESPECIALLY DEWPOINT AND RELATIVE
    HUMIDITY OBSERVATIONS.

INZ001>003-010>013-019-020-191700-
NORTHWEST INDIANA

CITY           SKY/WX    TMP DP  RH WIND       PRES   REMARKS
GARY /AIRPORT/ MOSUNNY   43  32  65 NW12G23   30.30S
KNOX *+        FAIR      45  32  61 N18       30.27R
MICHIGAN CITY+ FAIR      41  32  70 N16G24    30.31R
MONTICELLO +   PTSUNNY   45  29  55 N15G22    30.27R
RENSSELAER +   FAIR      45  30  57 NW13G20   30.30R
VALPARAISO     FAIR      45  33  63 N14G21    30.29R

$$

LMZ046-743>745-191700-
SOUTHERN LAKE MICHIGAN

STATION/POSITION TIME  TEMP    WIND        PRES    WAVE
                       AIR SEA DIR/SP/G            HT
                 (UTC) (F)     (DEG/KT/KT) (MB)    (FT)
BURNS HARBOR     1516   38     350/ 15/ 20 1026.4R
MICHIGAN CITY    1530   38     330/ 22/ 24   N/A

$$

INZ004-005-014>016-021>024-191700-
NORTH CENTRAL INDIANA

CITY           SKY/WX    TMP DP  RH WIND       PRES   REMARKS
ELKHART        FAIR      46  28  49 NW9G18    30.23R
GOSHEN         FAIR      45  30  55 NW15G26   30.22R
SOUTH BEND     FAIR      43  27  53 NW18G24   30.27R
WARSAW +       FAIR      43  32  65 N10G18    30.23R

$$

INZ006>009-017-018-025>027-191700-
NORTHEAST INDIANA

CITY           SKY/WX    TMP DP  RH WIND       PRES   REMARKS
ANGOLA *+      FAIR      43  28  56 N9G20     30.18R
FORT WAYNE     FAIR      45  31  58 N15G22    30.21R
KENDALLVILLE + FAIR      43  26  51 N10G21    30.20R

$$

INZ028-029-035-036-043>045-051>053-191700-
WEST CENTRAL INDIANA

CITY           SKY/WX    TMP DP  RH WIND       PRES   REMARKS
CRAWFORDSVL +  PTSUNNY   44  31  59 N13       30.28R
GREENCASTLE +  PTSUNNY   43  30  61 N9        30.28R
LAFAYETTE      PTSUNNY   46  31  55 N16G23    30.29R
TERRE HAUTE    FAIR      45  32  60 N10       30.30R

$$

INZ030>032-037>040-046>048-054>057-064-065-191700-
CENTRAL INDIANA

CITY           SKY/WX    TMP DP  RH WIND       PRES   REMARKS
COLUMBUS       CLOUDY    41 N/A N/A N14       30.26R
INDIANAPOLIS   PTSUNNY   45  30  55 N13       30.26R
-EAGLE CREEK   PTSUNNY   44  28  53 N13       30.26R
KOKOMO +       PTSUNNY   45  30  55 NW17      30.25R
MT COMFORT *+  PTSUNNY   43  34  70 N13G18    30.25R
SHELBYVILLE    PTSUNNY   43  30  60 N12       30.25R
ZIONSVILLE +   PTSUNNY   42  31  66 N10       30.26R

$$

INZ033-034-041-042-049-050-058-059-191700-
EAST CENTRAL INDIANA

CITY           SKY/WX    TMP DP  RH WIND       PRES   REMARKS
MUNCIE         CLOUDY    44  31  60 N14       30.22R
RICHMOND +     PTSUNNY   41  32  70 N8        30.20R

$$

INZ060-061-067>069-081>083-085>088-191700-
SOUTHWEST INDIANA

CITY           SKY/WX    TMP DP  RH WIND       PRES   REMARKS
EVANSVILLE     CLOUDY    42  32  67 NW9G20    30.32R
HUNTINGBURG +  CLOUDY    43  34  70 NW12      30.29R

$$

INZ062-063-066-070>080-084-089>092-191700-
SOUTH CENTRAL AND SOUTHEAST INDIANA

CITY           SKY/WX    TMP DP  RH WIND       PRES   REMARKS
BLOOMINGTON    CLOUDY    42  32  67 N9        30.27R
FRENCH LICK *+ CLOUDY    39  30  70 NW8       30.27R WCI  34
MADISON *+     CLOUDY    41  32  70 NW12      30.26R
SEYMOUR +      CLOUDY    43  32  65 NW13      30.26

$$





USA.gov is the U.S. government's official web portal to all federal, state and local government web resources and services.